QPF
0.01 0.01 0.01 0.01 0.01 0.01 0.01 0.01 0.02 0.01 0.02 0.03 0.03 0.03 0.02 0.02 0.02 0.03 0.03 0.02 0.03 0.03 0.04 0.03 0.03 0.03 0.02 0.02 0.02 0.02 0.01 0.01 0.00 0.00 0.01 0.01 0.01 0.01 0.01 0.01 0.02 0.03 0.04 0.05
0.01 0.01 0.01 0.01 0.01 0.01 0.01 0.01 0.02 0.02 0.02 0.03 0.03 0.03 0.03 0.03 0.03 0.02 0.03 0.02 0.02 0.02 0.02 0.03 0.03 0.02 0.02 0.01 0.01 0.02 0.02 0.01 0.01 0.01 0.00 0.01 0.01 0.01 0.01 0.02 0.02 0.02 0.03 0.02
0.01 0.01 0.02 0.02 0.02 0.03 0.03 0.03 0.03 0.03 0.03 0.03 0.03 0.04 0.04 0.02 0.02 0.02 0.02 0.03 0.03 0.02 0.02 0.04 0.04 0.03 0.02 0.01 0.01 0.02 0.02 0.02 0.03 0.03 0.02 0.01 0.01 0.01 0.02 0.02 0.02 0.01 0.01 0.02
0.02 0.01 0.02 0.02 0.03 0.02 0.03 0.04 0.04 0.03 0.03 0.03 0.03 0.03 0.03 0.03 0.02 0.02 0.02 0.03 0.03 0.02 0.02 0.03 0.03 0.02 0.02 0.01 0.02 0.03 0.03 0.02 0.02 0.03 0.03 0.03 0.02 0.02 0.02 0.02 0.01 0.01 0.01 0.01
0.03 0.03 0.04 0.05 0.03 0.03 0.03 0.04 0.04 0.03 0.03 0.02 0.03 0.03 0.02 0.03 0.03 0.03 0.03 0.03 0.03 0.03 0.03 0.03 0.03 0.02 0.01 0.01 0.01 0.02 0.03 0.05 0.04 0.02 0.02 0.02 0.02 0.02 0.03 0.03 0.02 0.01 0.01 0.01
0.04 0.04 0.07 0.08 0.04 0.02 0.02 0.03 0.03 0.03 0.02 0.01 0.02 0.02 0.01 0.01 0.01 0.01 0.01 0.01 0.01 0.02 0.02 0.03 0.02 0.02 0.01 0.01 0.01 0.01 0.02 0.04 0.06 0.03 0.02 0.02 0.02 0.03 0.03 0.03 0.03 0.03 0.03 0.02
0.04 0.04 0.06 0.07 0.04 0.01 0.02 0.03 0.04 0.02 0.01 0.01 0.01 0.01 0.01 0.01 0.01 0.01 0.01 0.01 0.01 0.01 0.02 0.03 0.03 0.02 0.01 0.01 0.01 0.01 0.01 0.02 0.04 0.04 0.03 0.02 0.02 0.03 0.03 0.03 0.03 0.03 0.03 0.03
0.03 0.04 0.06 0.05 0.04 0.03 0.03 0.03 0.03 0.02 0.02 0.01 0.01 0.01 0.01 0.01 0.01 0.01 0.02 0.01 0.02 0.02 0.02 0.03 0.03 0.03 0.02 0.02 0.01 0.01 0.01 0.01 0.02 0.03 0.02 0.02 0.02 0.02 0.02 0.03 0.03 0.04 0.04 0.03
0.04 0.05 0.05 0.04 0.04 0.04 0.03 0.02 0.03 0.03 0.02 0.01 0.01 0.01 0.01 0.01 0.02 0.02 0.02 0.02 0.02 0.02 0.03 0.03 0.03 0.03 0.03 0.02 0.02 0.01 0.00 0.01 0.01 0.01 0.02 0.02 0.02 0.01 0.01 0.02 0.02 0.03 0.05 0.04
0.03 0.04 0.04 0.02 0.02 0.02 0.02 0.02 0.02 0.03 0.03 0.03 0.03 0.02 0.02 0.02 0.02 0.02 0.02 0.02 0.02 0.03 0.03 0.03 0.03 0.04 0.04 0.03 0.02 0.01 0.01 0.01 0.02 0.01 0.02 0.02 0.02 0.02 0.01 0.02 0.02 0.03 0.03 0.05
0.04 0.05 0.04 0.02 0.01 0.02 0.02 0.02 0.02 0.02 0.03 0.04 0.05 0.08 0.06 0.04 0.03 0.03 0.03 0.03 0.04 0.05 0.05 0.04 0.04 0.03 0.03 0.02 0.01 0.01 0.01 0.01 0.02 0.02 0.02 0.01 0.01 0.01 0.02 0.01 0.02 0.02 0.03 0.04
0.05 0.04 0.04 0.03 0.02 0.02 0.02 0.01 0.02 0.02 0.02 0.02 0.04 0.07 0.08 0.07 0.06 0.05 0.04 0.04 0.05 0.05 0.05 0.05 0.04 0.03 0.03 0.02 0.02 0.01 0.01 0.01 0.01 0.02 0.02 0.02 0.01 0.02 0.02 0.01 0.02 0.03 0.03 0.03
0.03 0.03 0.03 0.03 0.02 0.02 0.02 0.02 0.02 0.01 0.02 0.01 0.02 0.02 0.03 0.05 0.06 0.07 0.06 0.06 0.06 0.04 0.04 0.04 0.04 0.04 0.04 0.04 0.03 0.02 0.01 0.01 0.01 0.01 0.02 0.02 0.03 0.03 0.03 0.02 0.02 0.03 0.03 0.05
0.02 0.02 0.02 0.02 0.01 0.01 0.02 0.02 0.02 0.01 0.01 0.02 0.02 0.01 0.01 0.01 0.02 0.04 0.06 0.08 0.07 0.04 0.03 0.03 0.03 0.03 0.03 0.03 0.03 0.03 0.03 0.02 0.02 0.01 0.02 0.02 0.03 0.03 0.03 0.02 0.03 0.03 0.05 0.07
0.01 0.01 0.02 0.02 0.01 0.01 0.01 0.01 0.01 0.01 0.01 0.01 0.01 0.01 0.01 0.01 0.01 0.02 0.04 0.06 0.06 0.05 0.04 0.03 0.02 0.02 0.02 0.03 0.03 0.03 0.03 0.03 0.04 0.04 0.04 0.04 0.04 0.03 0.02 0.02 0.02 0.02 0.02 0.03
0.01 0.02 0.01 0.01 0.01 0.01 0.01 0.01 0.01 0.01 0.01 0.01 0.01 0.01 0.01 0.01 0.01 0.01 0.02 0.04 0.03 0.02 0.02 0.02 0.02 0.01 0.01 0.01 0.02 0.03 0.03 0.03 0.04 0.04 0.04 0.04 0.03 0.03 0.03 0.03 0.02 0.01 0.01 0.02
0.02 0.02 0.02 0.01 0.01 0.01 0.01 0.01 0.01 0.00 0.01 0.01 0.01 0.01 0.01 0.01 0.01 0.01 0.02 0.03 0.01 0.01 0.01 0.01 0.01 0.01 0.01 0.01 0.01 0.01 0.02 0.02 0.01 0.01 0.02 0.02 0.02 0.02 0.03 0.02 0.02 0.02 0.02 0.03
0.02 0.02 0.02 0.01 0.01 0.01 0.02 0.02 0.01 0.01 0.01 0.01 0.01 0.01 0.01 0.01 0.02 0.02 0.02 0.02 0.01 0.00 0.01 0.01 0.01 0.01 0.01 0.01 0.01 0.01 0.01 0.01 0.01 0.01 0.00 0.01 0.01 0.01 0.02 0.02 0.02 0.02 0.03 0.04
0.01 0.01 0.01 0.01 0.01 0.02 0.02 0.02 0.02 0.02 0.01 0.01 0.01 0.02 0.02 0.02 0.02 0.02 0.02 0.01 0.01 0.00 0.01 0.01 0.01 0.01 0.01 0.01 0.01 0.01 0.01 0.01 0.01 0.01 0.01 0.01 0.01 0.01 0.01 0.01 0.02 0.03 0.03 0.03
0.01 0.01 0.01 0.02 0.02 0.02 0.02 0.02 0.02 0.02 0.02 0.02 0.02 0.02 0.02 0.02 0.02 0.02 0.02 0.01 0.01 0.01 0.01 0.01 0.02 0.02 0.02 0.02 0.02 0.01 0.01 0.01 0.01 0.01 0.01 0.01 0.01 0.01 0.01 0.02 0.02 0.03 0.04 0.04
0.01 0.01 0.01 0.01 0.02 0.02 0.02 0.02 0.02 0.02 0.02 0.01 0.02 0.02 0.02 0.02 0.02 0.02 0.02 0.01 0.01 0.01 0.01 0.02 0.02 0.02 0.02 0.02 0.01 0.01 0.01 0.01 0.01 0.01 0.01 0.01 0.01 0.01 0.01 0.01 0.01 0.02 0.02 0.03
0.01 0.01 0.01 0.01 0.02 0.02 0.03 0.03 0.02 0.02 0.02 0.01 0.02 0.02 0.03 0.03 0.02 0.02 0.02 0.02 0.02 0.02 0.02 0.02 0.02 0.02 0.02 0.02 0.01 0.01 0.01 0.01 0.01 0.01 0.02 0.01 0.01 0.01 0.02 0.02 0.01 0.01 0.01 0.02
0.00 0.01 0.01 0.02 0.02 0.01 0.01 0.01 0.01 0.01 0.02 0.01 0.01 0.02 0.04 0.04 0.02 0.02 0.02 0.02 0.02 0.03 0.02 0.02 0.03 0.03 0.03 0.02 0.02 0.01 0.01 0.01 0.01 0.01 0.02 0.01 0.01 0.01 0.01 0.02 0.02 0.03 0.03 0.03
0.00 0.00 0.01 0.01 0.01 0.01 0.01 0.01 0.01 0.01 0.01 0.01 0.01 0.01 0.01 0.02 0.03 0.03 0.02 0.02 0.02 0.02 0.02 0.02 0.02 0.03 0.02 0.02 0.03 0.03 0.02 0.02 0.01 0.02 0.02 0.02 0.02 0.02 0.02 0.02 0.03 0.04 0.04 0.04
0.00 0.01 0.01 0.01 0.01 0.01 0.01 0.00 0.00 0.01 0.02 0.02 0.02 0.02 0.01 0.01 0.02 0.02 0.02 0.02 0.01 0.01 0.01 0.01 0.01 0.02 0.02 0.03 0.03 0.03 0.02 0.02 0.02 0.02 0.02 0.02 0.02 0.03 0.03 0.03 0.03 0.03 0.03 0.03
0.01 0.02 0.01 0.01 0.01 0.01 0.01 0.01 0.01 0.01 0.02 0.01 0.01 0.01 0.01 0.02 0.02 0.02 0.01 0.01 0.01 0.01 0.01 0.01 0.01 0.01 0.01 0.02 0.02 0.02 0.02 0.02 0.02 0.02 0.02 0.02 0.02 0.02 0.02 0.02 0.03 0.03 0.03 0.03
0.02 0.01 0.00 0.01 0.01 0.01 0.00 0.00 0.01 0.01 0.01 0.01 0.02 0.02 0.03 0.02 0.02 0.02 0.02 0.01 0.01 0.01 0.01 0.01 0.01 0.01 0.01 0.02 0.02 0.03 0.03 0.03 0.03 0.03 0.03 0.02 0.01 0.01 0.01 0.01 0.01 0.02 0.02 0.02
MSLP
1006.90 1006.27 1005.84 1005.61 1005.56 1005.63 1005.73 1005.76 1005.66 1005.37 1004.87 1004.20 1003.41 1002.60 1001.85 1001.25 1000.86 1000.73 1000.87 1001.24 1001.83 1002.56 1003.40 1004.29 1005.19 1006.10 1006.99 1007.85 1008.68 1009.48 1010.23 1010.94 1011.58 1012.15 1012.66 1013.11 1013.50 1013.85 1014.19 1014.51 1014.84 1015.18 1015.53 1015.90
1007.27 1006.62 1006.09 1005.71 1005.48 1005.35 1005.28 1005.20 1005.05 1004.79 1004.40 1003.89 1003.28 1002.65 1002.04 1001.51 1001.13 1000.92 1000.91 1001.09 1001.47 1002.00 1002.66 1003.42 1004.26 1005.15 1006.07 1007.00 1007.92 1008.82 1009.66 1010.44 1011.14 1011.76 1012.30 1012.76 1013.17 1013.54 1013.88 1014.21 1014.55 1014.89 1015.24 1015.60
1007.65 1007.01 1006.43 1005.94 1005.57 1005.28 1005.07 1004.89 1004.69 1004.46 1004.15 1003.78 1003.33 1002.84 1002.35 1001.90 1001.51 1001.23 1001.09 1001.10 1001.28 1001.62 1002.11 1002.74 1003.50 1004.36 1005.29 1006.27 1007.25 1008.21 1009.12 1009.95 1010.69 1011.34 1011.90 1012.38 1012.80 1013.17 1013.52 1013.86 1014.20 1014.54 1014.89 1015.25
1008.08 1007.47 1006.86 1006.30 1005.82 1005.41 1005.08 1004.81 1004.58 1004.35 1004.11 1003.83 1003.51 1003.15 1002.76 1002.36 1001.99 1001.66 1001.42 1001.30 1001.32 1001.49 1001.83 1002.35 1003.02 1003.82 1004.74 1005.71 1006.72 1007.70 1008.63 1009.48 1010.24 1010.89 1011.45 1011.92 1012.34 1012.71 1013.07 1013.41 1013.76 1014.11 1014.46 1014.82
1008.57 1007.98 1007.36 1006.76 1006.20 1005.70 1005.28 1004.93 1004.65 1004.42 1004.21 1004.00 1003.77 1003.51 1003.21 1002.88 1002.53 1002.19 1001.90 1001.69 1001.59 1001.65 1001.87 1002.28 1002.86 1003.59 1004.45 1005.39 1006.36 1007.32 1008.23 1009.05 1009.78 1010.40 1010.94 1011.39 1011.80 1012.17 1012.52 1012.87 1013.23 1013.59 1013.96 1014.33
1009.08 1008.51 1007.90 1007.28 1006.67 1006.10 1005.61 1005.20 1004.87 1004.62 1004.42 1004.25 1004.09 1003.91 1003.69 1003.43 1003.13 1002.81 1002.51 1002.26 1002.11 1002.09 1002.23 1002.54 1003.04 1003.68 1004.46 1005.32 1006.21 1007.09 1007.92 1008.68 1009.34 1009.91 1010.40 1010.82 1011.20 1011.56 1011.91 1012.27 1012.64 1013.01 1013.40 1013.79
1009.57 1009.03 1008.43 1007.80 1007.17 1006.57 1006.02 1005.56 1005.20 1004.92 1004.72 1004.58 1004.46 1004.34 1004.20 1004.01 1003.78 1003.51 1003.24 1003.01 1002.84 1002.78 1002.87 1003.11 1003.52 1004.07 1004.73 1005.48 1006.26 1007.02 1007.74 1008.39 1008.96 1009.45 1009.88 1010.25 1010.60 1010.94 1011.29 1011.66 1012.04 1012.43 1012.83 1013.24
1009.97 1009.47 1008.90 1008.29 1007.66 1007.05 1006.49 1006.00 1005.60 1005.31 1005.10 1004.98 1004.89 1004.82 1004.74 1004.63 1004.48 1004.29 1004.08 1003.89 1003.74 1003.69 1003.74 1003.93 1004.25 1004.70 1005.24 1005.86 1006.49 1007.12 1007.71 1008.24 1008.70 1009.10 1009.45 1009.77 1010.09 1010.41 1010.74 1011.11 1011.49 1011.90 1012.32 1012.75
1010.24 1009.78 1009.26 1008.70 1008.10 1007.51 1006.96 1006.48 1006.08 1005.78 1005.57 1005.45 1005.40 1005.37 1005.35 1005.31 1005.23 1005.12 1005.00 1004.87 1004.77 1004.73 1004.77 1004.92 1005.17 1005.51 1005.94 1006.41 1006.91 1007.39 1007.84 1008.24 1008.60 1008.90 1009.18 1009.45 1009.72 1010.01 1010.33 1010.68 1011.07 1011.47 1011.90 1012.34
1010.34 1009.94 1009.49 1009.00 1008.47 1007.94 1007.43 1006.98 1006.60 1006.32 1006.12 1006.02 1005.98 1005.99 1006.02 1006.04 1006.04 1006.01 1005.97 1005.90 1005.86 1005.84 1005.88 1006.00 1006.18 1006.44 1006.75 1007.10 1007.46 1007.81 1008.13 1008.42 1008.67 1008.89 1009.10 1009.30 1009.53 1009.78 1010.07 1010.40 1010.77 1011.16 1011.58 1012.02
1010.28 1009.96 1009.60 1009.19 1008.76 1008.31 1007.88 1007.49 1007.16 1006.91 1006.74 1006.66 1006.65 1006.69 1006.76 1006.83 1006.89 1006.93 1006.95 1006.95 1006.95 1006.96 1007.00 1007.08 1007.22 1007.39 1007.61 1007.85 1008.09 1008.33 1008.54 1008.73 1008.90 1009.04 1009.19 1009.34 1009.51 1009.72 1009.96 1010.25 1010.58 1010.94 1011.33 1011.75
1010.10 1009.87 1009.60 1009.30 1008.98 1008.64 1008.30 1007.99 1007.73 1007.53 1007.40 1007.35 1007.37 1007.43 1007.53 1007.64 1007.75 1007.84 1007.90 1007.95 1007.98 1008.01 1008.04 1008.10 1008.19 1008.30 1008.44 1008.59 1008.75 1008.89 1009.02 1009.14 1009.23 1009.31 1009.39 1009.49 1009.60 1009.75 1009.93 1010.16 1010.43 1010.74 1011.09 1011.48
1009.89 1009.73 1009.56 1009.37 1009.15 1008.92 1008.69 1008.48 1008.29 1008.15 1008.07 1008.05 1008.09 1008.18 1008.30 1008.43 1008.56 1008.68 1008.77 1008.84 1008.89 1008.92 1008.95 1008.98 1009.03 1009.09 1009.16 1009.25 1009.33 1009.41 1009.48 1009.53 1009.57 1009.60 1009.62 1009.66 1009.70 1009.78 1009.89 1010.04 1010.24 1010.48 1010.77 1011.11
1009.70 1009.61 1009.53 1009.43 1009.31 1009.19 1009.05 1008.92 1008.81 1008.74 1008.70 1008.71 1008.77 1008.87 1009.00 1009.14 1009.28 1009.40 1009.50 1009.58 1009.62 1009.65 1009.66 1009.66 1009.67 1009.68 1009.71 1009.74 1009.77 1009.80 1009.82 1009.83 1009.83 1009.81 1009.78 1009.75 1009.73 1009.72 1009.75 1009.81 1009.92 1010.08 1010.31 1010.59
1009.60 1009.56 1009.54 1009.52 1009.49 1009.44 1009.39 1009.33 1009.28 1009.25 1009.25 1009.29 1009.36 1009.46 1009.59 1009.72 1009.85 1009.96 1010.05 1010.11 1010.14 1010.14 1010.12 1010.10 1010.06 1010.04 1010.02 1010.01 1010.00 1009.99 1009.98 1009.95 1009.91 1009.85 1009.77 1009.68 1009.59 1009.51 1009.45 1009.43 1009.45 1009.52 1009.67 1009.89
1009.60 1009.60 1009.62 1009.65 1009.68 1009.70 1009.70 1009.69 1009.68 1009.69 1009.70 1009.75 1009.82 1009.91 1010.02 1010.13 1010.24 1010.33 1010.39 1010.42 1010.42 1010.38 1010.33 1010.27 1010.19 1010.13 1010.07 1010.02 1009.98 1009.94 1009.90 1009.85 1009.77 1009.68 1009.56 1009.42 1009.27 1009.12 1008.98 1008.87 1008.81 1008.81 1008.88 1009.04
1009.68 1009.71 1009.77 1009.84 1009.90 1009.95 1009.98 1010.00 1010.01 1010.02 1010.04 1010.07 1010.13 1010.19 1010.27 1010.35 1010.42 1010.48 1010.50 1010.49 1010.45 1010.38 1010.28 1010.17 1010.06 1009.95 1009.86 1009.78 1009.70 1009.64 1009.57 1009.50 1009.40 1009.28 1009.13 1008.95 1008.75 1008.55 1008.35 1008.17 1008.04 1007.98 1007.99 1008.08
1009.82 1009.87 1009.95 1010.04 1010.12 1010.18 1010.22 1010.25 1010.26 1010.26 1010.26 1010.27 1010.29 1010.32 1010.36 1010.39 1010.42 1010.43 1010.40 1010.35 1010.26 1010.15 1010.01 1009.85 1009.70 1009.55 1009.41 1009.30 1009.19 1009.10 1009.01 1008.91 1008.80 1008.66 1008.48 1008.28 1008.06 1007.82 1007.58 1007.37 1007.19 1007.08 1007.04 1007.09
1009.94 1010.02 1010.12 1010.22 1010.31 1010.38 1010.42 1010.43 1010.42 1010.40 1010.37 1010.34 1010.32 1010.30 1010.29 1010.28 1010.25 1010.20 1010.13 1010.03 1009.89 1009.73 1009.54 1009.35 1009.15 1008.95 1008.78 1008.62 1008.48 1008.36 1008.24 1008.12 1007.98 1007.83 1007.64 1007.43 1007.19 1006.94 1006.69 1006.46 1006.27 1006.13 1006.07 1006.10
1010.01 1010.11 1010.23 1010.35 1010.44 1010.51 1010.54 1010.54 1010.50 1010.45 1010.39 1010.32 1010.25 1010.18 1010.11 1010.04 1009.96 1009.87 1009.74 1009.59 1009.41 1009.19 1008.96 1008.72 1008.47 1008.23 1008.01 1007.80 1007.62 1007.45 1007.29 1007.14 1006.98 1006.80 1006.60 1006.38 1006.15 1005.90 1005.66 1005.44 1005.26 1005.13 1005.07 1005.09
1009.97 1010.10 1010.25 1010.38 1010.48 1010.55 1010.57 1010.55 1010.50 1010.42 1010.32 1010.21 1010.09 1009.98 1009.86 1009.74 1009.61 1009.46 1009.29 1009.09 1008.86 1008.60 1008.32 1008.03 1007.73 1007.44 1007.15 1006.88 1006.64 1006.41 1006.19 1005.98 1005.78 1005.57 1005.35 1005.12 1004.88 1004.65 1004.43 1004.24 1004.09 1003.99 1003.96 1004.01
1009.81 1009.98 1010.14 1010.29 1010.40 1010.48 1010.50 1010.47 1010.41 1010.31 1010.18 1010.04 1009.88 1009.73 1009.57 1009.40 1009.23 1009.03 1008.82 1008.58 1008.31 1008.00 1007.68 1007.33 1006.98 1006.61 1006.26 1005.91 1005.58 1005.26 1004.96 1004.67 1004.39 1004.12 1003.86 1003.60 1003.36 1003.14 1002.94 1002.79 1002.68 1002.64 1002.67 1002.77
1009.57 1009.75 1009.93 1010.09 1010.21 1010.29 1010.31 1010.29 1010.22 1010.11 1009.96 1009.80 1009.63 1009.44 1009.25 1009.05 1008.84 1008.61 1008.37 1008.09 1007.78 1007.44 1007.06 1006.66 1006.24 1005.81 1005.36 1004.92 1004.48 1004.05 1003.63 1003.23 1002.84 1002.48 1002.14 1001.83 1001.55 1001.32 1001.15 1001.03 1000.98 1001.01 1001.12 1001.30
1009.26 1009.44 1009.62 1009.78 1009.91 1009.99 1010.02 1010.00 1009.93 1009.82 1009.68 1009.51 1009.32 1009.12 1008.91 1008.70 1008.46 1008.21 1007.94 1007.63 1007.29 1006.91 1006.50 1006.04 1005.56 1005.04 1004.50 1003.94 1003.37 1002.81 1002.25 1001.70 1001.18 1000.69 1000.24 999.84 999.51 999.25 999.08 998.99 999.00 999.10 999.30 999.59
1008.93 1009.10 1009.27 1009.42 1009.54 1009.61 1009.65 1009.63 1009.57 1009.47 1009.33 1009.16 1008.97 1008.77 1008.56 1008.33 1008.09 1007.82 1007.53 1007.21 1006.85 1006.44 1005.99 1005.49 1004.94 1004.34 1003.70 1003.03 1002.32 1001.61 1000.89 1000.18 999.50 998.85 998.27 997.77 997.35 997.04 996.85 996.77 996.83 997.00 997.30 997.71
1008.64 1008.78 1008.91 1009.04 1009.14 1009.20 1009.23 1009.21 1009.15 1009.06 1008.93 1008.77 1008.59 1008.39 1008.18 1007.95 1007.70 1007.43 1007.14 1006.81 1006.43 1006.01 1005.53 1004.99 1004.39 1003.73 1003.00 1002.22 1001.39 1000.54 999.66 998.79 997.95 997.15 996.42 995.79 995.27 994.89 994.66 994.58 994.67 994.91 995.30 995.82
1008.44 1008.52 1008.61 1008.70 1008.77 1008.81 1008.81 1008.79 1008.73 1008.63 1008.50 1008.35 1008.17 1007.98 1007.77 1007.54 1007.29 1007.02 1006.73 1006.40 1006.03 1005.60 1005.11 1004.56 1003.92 1003.22 1002.43 1001.57 1000.65 999.68 998.68 997.67 996.69 995.74 994.88 994.13 993.52 993.06 992.78 992.68 992.78 993.06 993.51 994.13
Thickness
5641 5650 5651 5652 5654 5657 5654 5653 5652 5658 5661 5669 5674 5678 5682 5685 5685 5687 5689 5690 5690 5689 5689 5688 5688 5688 5688 5687 5687 5687 5684 5682 5681 5680 5679 5678 5677 5676 5675 5674 5673 5672 5671 5670
5633 5642 5644 5643 5648 5651 5651 5652 5652 5655 5657 5667 5669 5672 5673 5676 5677 5678 5680 5682 5682 5681 5681 5680 5680 5680 5679 5679 5679 5679 5677 5676 5675 5674 5673 5672 5671 5670 5668 5667 5667 5666 5665 5664
5618 5631 5636 5629 5639 5644 5646 5649 5649 5648 5653 5659 5660 5663 5666 5668 5670 5671 5672 5674 5674 5674 5674 5673 5673 5673 5672 5672 5672 5671 5670 5669 5668 5667 5666 5665 5665 5663 5662 5661 5661 5659 5659 5657
5609 5617 5613 5628 5642 5645 5642 5642 5644 5647 5650 5653 5655 5658 5660 5662 5663 5664 5665 5667 5667 5667 5667 5667 5667 5666 5665 5664 5663 5662 5661 5660 5660 5660 5659 5658 5657 5656 5656 5655 5654 5654 5652 5652
5599 5602 5611 5625 5632 5633 5632 5633 5638 5639 5642 5645 5647 5649 5650 5656 5657 5657 5659 5659 5659 5659 5660 5659 5658 5657 5657 5656 5654 5654 5653 5653 5653 5653 5652 5651 5650 5650 5649 5648 5648 5648 5647 5646
5595 5597 5599 5612 5625 5631 5628 5622 5632 5634 5634 5635 5639 5634 5639 5647 5649 5650 5652 5652 5652 5652 5651 5650 5649 5649 5648 5647 5647 5646 5647 5646 5646 5646 5645 5644 5644 5643 5643 5642 5642 5642 5641 5640
5590 5591 5595 5608 5617 5625 5611 5613 5624 5626 5628 5628 5628 5630 5634 5638 5640 5641 5643 5643 5644 5643 5643 5642 5641 5641 5639 5639 5639 5640 5640 5639 5638 5638 5637 5637 5636 5636 5635 5635 5635 5635 5634 5633
5580 5582 5587 5603 5607 5604 5604 5612 5615 5618 5620 5620 5622 5624 5627 5630 5631 5633 5634 5635 5635 5634 5634 5634 5633 5632 5631 5631 5632 5632 5631 5631 5630 5630 5630 5630 5629 5629 5629 5629 5628 5628 5626 5626
5577 5579 5588 5593 5596 5599 5600 5602 5607 5609 5612 5613 5614 5616 5618 5620 5622 5624 5625 5626 5626 5626 5625 5625 5625 5625 5624 5624 5625 5624 5623 5622 5622 5622 5622 5622 5622 5622 5621 5622 5622 5622 5620 5620
5574 5579 5584 5587 5591 5593 5595 5597 5600 5602 5604 5605 5605 5607 5608 5609 5612 5614 5616 5616 5617 5617 5617 5617 5617 5617 5616 5617 5616 5615 5615 5615 5615 5615 5615 5616 5616 5616 5615 5616 5616 5615 5614 5614
5568 5573 5578 5581 5582 5585 5588 5591 5593 5595 5597 5597 5597 5598 5599 5600 5602 5604 5607 5608 5608 5608 5608 5609 5609 5609 5609 5609 5608 5607 5606 5607 5608 5608 5608 5609 5609 5609 5610 5610 5610 5610 5610 5609
5562 5566 5565 5570 5576 5579 5580 5582 5584 5586 5588 5590 5591 5591 5592 5592 5594 5595 5598 5599 5599 5600 5601 5601 5601 5601 5602 5602 5602 5600 5599 5600 5600 5600 5601 5602 5602 5602 5603 5603 5604 5604 5603 5603
5562 5564 5564 5567 5570 5572 5573 5575 5577 5578 5579 5581 5583 5584 5584 5584 5586 5588 5589 5591 5591 5592 5593 5593 5593 5594 5595 5596 5595 5594 5593 5593 5593 5593 5594 5594 5595 5595 5595 5596 5596 5596 5596 5596
5560 5560 5559 5561 5562 5565 5567 5568 5569 5570 5571 5573 5574 5575 5576 5576 5577 5579 5580 5582 5583 5584 5585 5586 5586 5587 5588 5588 5588 5587 5586 5586 5587 5587 5587 5588 5589 5588 5589 5589 5589 5589 5589 5589
5557 5556 5554 5555 5557 5558 5560 5561 5561 5561 5562 5564 5565 5566 5567 5567 5568 5570 5572 5574 5574 5575 5577 5578 5578 5579 5580 5580 5580 5580 5580 5581 5581 5581 5582 5582 5583 5582 5582 5582 5582 5582 5583 5583
5551 5552 5552 5551 5551 5552 5553 5554 5552 5553 5554 5555 5556 5557 5558 5559 5560 5562 5563 5565 5566 5568 5570 5571 5571 5573 5573 5573 5573 5573 5574 5575 5575 5575 5576 5576 5576 5576 5576 5575 5575 5575 5576 5576
5545 5545 5546 5546 5546 5546 5546 5546 5546 5547 5548 5548 5549 5549 5551 5552 5552 5553 5555 5558 5559 5561 5562 5563 5565 5567 5567 5567 5568 5568 5568 5568 5568 5569 5569 5570 5570 5570 5569 5569 5569 5569 5569 5569
5543 5542 5541 5541 5541 5541 5541 5541 5541 5541 5541 5542 5543 5544 5544 5544 5545 5547 5549 5551 5553 5554 5556 5558 5559 5560 5561 5561 5561 5562 5562 5562 5562 5562 5563 5563 5563 5563 5562 5562 5562 5562 5562 5561
5539 5538 5537 5538 5537 5536 5536 5536 5536 5536 5537 5537 5537 5536 5536 5538 5539 5541 5543 5544 5546 5547 5550 5552 5553 5554 5555 5555 5556 5556 5556 5556 5556 5556 5556 5556 5556 5555 5555 5555 5555 5555 5554 5554
5534 5534 5533 5533 5533 5532 5532 5531 5531 5531 5531 5531 5531 5530 5531 5532 5534 5535 5536 5537 5538 5540 5543 5546 5547 5548 5549 5549 5549 5549 5550 5549 5549 5549 5548 5549 5548 5548 5547 5547 5547 5547 5546 5546
5529 5529 5528 5528 5528 5528 5527 5527 5526 5526 5526 5525 5525 5525 5526 5526 5527 5528 5530 5531 5534 5535 5537 5539 5541 5542 5542 5542 5542 5543 5542 5542 5541 5541 5541 5541 5541 5541 5541 5540 5539 5539 5538 5538
5524 5524 5524 5523 5522 5522 5522 5522 5522 5521 5521 5520 5520 5520 5520 5520 5521 5522 5523 5524 5527 5529 5531 5533 5534 5535 5535 5535 5535 5535 5535 5535 5534 5534 5534 5534 5534 5534 5534 5533 5532 5531 5530 5530
5519 5519 5518 5518 5518 5517 5517 5517 5517 5517 5516 5516 5515 5514 5514 5514 5515 5516 5518 5520 5522 5523 5525 5526 5526 5527 5526 5527 5527 5527 5527 5527 5527 5527 5527 5527 5526 5526 5526 5525 5524 5523 5522 5522
5515 5515 5515 5514 5513 5512 5512 5512 5512 5512 5512 5511 5511 5510 5510 5510 5511 5512 5514 5515 5516 5517 5518 5518 5518 5518 5519 5519 5519 5519 5519 5519 5519 5519 5519 5519 5519 5519 5518 5518 5517 5516 5514 5513
5511 5511 5510 5509 5508 5508 5507 5507 5507 5507 5507 5507 5507 5507 5506 5506 5507 5508 5509 5510 5511 5511 5511 5511 5511 5510 5511 5511 5511 5511 5511 5511 5512 5512 5512 5512 5511 5511 5510 5510 5509 5508 5507 5505
5507 5506 5506 5505 5505 5504 5503 5502 5502 5502 5502 5502 5503 5503 5503 5503 5503 5503 5503 5504 5504 5504 5504 5504 5504 5503 5503 5503 5503 5504 5504 5504 5504 5504 5504 5504 5504 5504 5503 5502 5502 5500 5499 5498
5503 5502 5501 5500 5500 5500 5500 5499 5498 5498 5498 5497 5498 5498 5498 5498 5498 5498 5497 5498 5498 5497 5497 5496 5496 5496 5496 5496 5496 5496 5496 5496 5496 5496 5496 5496 5496 5496 5495 5494 5493 5492 5491 5490